{"data":{"norad_id":63804,"epoch":"2026-09-20T02:36:55.764864Z","epoch_age_seconds":183482,"freshness":"STALE","line1":"1 63804U 25092A   26263.10897876  .00015405  00000+0  56801-3 0  9991","line2":"2 63804  43.0019 154.9949 0001613 258.6047 101.4624 15.27588008 78348","mean_motion":15.27588008,"eccentricity":0.0001613,"inclination_deg":43.0019,"raan_deg":154.9949,"arg_perigee_deg":258.6047,"mean_anomaly_deg":101.4624,"bstar":0.00056801,"rev_number":7834,"period_min":94.266254543679,"perigee_km":481.91841186202,"apogee_km":484.13182276106,"semimajor_km":6861.1621173115,"source":"CELESTRAK","updated_at":"2026-09-21T09:00:35.103677Z"}}